Location: Bower School (historical)
(37.8389°N, 89.5348°W)
Time: 03:24:30
(UTC+00:00)

ATLAS 3B R/B - Pass Details

Date: 11 December 2025
Orbit: 936 x 1258 km, 63.8° (Epoch: 15 January)

Event Time Altitude Azimuth Distance (km) Brightness Sun altitude
Rises 12:24:53 0° 332° (NNW) 4,213 5.3 -7.7°
Reaches altitude 10° 12:28:03 10° 341° (NNW) 3,231 4.8 -7.2°
Maximum altitude 12:35:05 35° 45° (NE) 1,863 4.2 -5.9°
Drops below altitude 10° 12:41:47 10° 109° (ESE) 3,075 7.0 -4.7°
Sets 12:44:42 0° 118° (ESE) 3,986 8.9 -4.2°
